Airfield :
LOGIN :

Register | Disclaimer

   EN    FR    IT 

 










Legend :    VFR   Marginal VFR   IFR   Intensive IFR   Very Intensive IFR
Visi :
Ceiling :
>= 8 km
>= 3000ft
5 to 8 km
1000 to 3000 ft
1500m to 5 km
500 to 1000 ft
800 to 1500m
200 to 500 ft
< 800m
< 200 ft
Symbols :   Thunderstorms  Fog  Heavy snow  Heavy precipitations  Wind > 20 kt
SIGMETs :     Misc.  Thunderstorms  Icing  Turbulence  Mountain Waves  Volcanic Ashes







- Airport Elevation : 76 ft
- IATA code : KID


ESMK - Kristianstad

CURRENT METAR :
  • 200720Z 28005KT CAVOK M02/M02 Q1009

EXPIRED METARs :
  • 200650Z 28004KT CAVOK M02/M02 Q1009
  • 200620Z 28004KT CAVOK M02/M02 Q1008
  • 200550Z 29006KT CAVOK M02/M02 Q1008
  • 200520Z 28006KT CAVOK M02/M02 Q1008
  • 200450Z 29007KT CAVOK M02/M02 Q1008

TAF TAF ESMK
Valid from the 20 at 06:00 until the 20 at 15:00 UTC


200502Z 2006/2015 30005KT 9999 SCT030
No reported NOTAMs for that airfield.



MET'MAP, your aeronautical weather chart ! - Copyright ORBIFLY December 2007 - Disclaimer

ORBIFLY MET'MAP TEAM :

Programming & Development : Alexandra Zaïnal
Concept & Development : Baudouin d'Aumeries
Co-Development & Prog : Marc-Olivier Méhu
Technical & hardware support : Manuel Goepfert

Contact : metmap@orbifly.com




SOURCES & CREDITS :

   NOAA